[[{"header":{"parameterUnit":"m.s-1","parameterCategory":1,"la1":30.2991,"la2":30.254,"lo1":-89.0895,"lo2":-89.0444,"dy":0.0017,"dx":0.0017,"nx":28,"ny":28,"refTime":"2026-03-02T09:00:00:Z","depth":0,"parameterNumber":2,"parameterNumberName":"U-component_of_WINDS"},"data":[0,0,0,0,0,0,0,0,0,0,0,0,0,0,0,0,0,0,0,0,0,0,0,0,0,0,0,0,0,0,0,0,0,0,0,0,0,0,0,0,0,0,0,0,0,0,0,0,0,0,0,0,0,0,0,0,0,0,-4.6379,-4.638,0,-4.642,-4.642,-4.6421,-4.6367,-4.6365,-4.6363,-4.6362,-4.64,-4.6403,-4.6406,0,0,0,0,0,0,0,0,0,0,0,0,0,-4.6255,-4.6257,-4.6379,-4.638,-4.638,-4.642,-4.642,-4.6421,-4.6368,-4.6365,-4.6363,-4.6361,-4.6399,-4.6402,-4.6406,0,0,0,0,0,0,0,0,0,0,0,0,0,-4.6303,-4.6258,-4.6379,-4.6358,-4.6357,-4.6419,-4.642,-4.6421,-4.6368,-4.6365,-4.6362,-4.636,-4.6398,-4.6402,-4.6406,-4.649,0,0,-4.6419,-4.6421,0,0,0,0,0,0,0,0,-4.6301,-4.6308,-4.6361,-4.636,-4.6358,-4.6386,-4.639,-4.6444,-4.6369,-4.6364,-4.6362,-4.6358,-4.6397,-4.6401,-4.6415,-4.6492,-4.6493,-4.642,-4.6422,-4.6424,-4.6425,0,0,0,0,0,0,0,-4.6297,-4.6306,-4.6395,-4.6362,-4.636,-4.6347,-4.6351,-4.64,-4.6396,-4.6364,-4.636,-4.6366,-4.6396,-4.6411,-4.6416,-4.6494,-4.6419,-4.6423,-4.6426,-4.6427,-4.6642,-4.6645,0,0,0,0,0,0,-4.6297,-4.6303,-4.6394,-4.6396,-4.6322,-4.6352,-4.6356,-4.638,-4.6395,-4.6395,-4.6368,-4.6363,-4.6406,-4.6411,-4.6417,-4.6516,-4.6424,-4.6428,-4.643,-4.6639,-4.6643,-4.6646,0,0,0,0,0,0,-4.6294,-4.6305,-4.6392,-4.6349,-4.6359,-4.6357,-4.6384,-4.6382,-4.6397,-4.6399,-4.6398,-4.6385,-4.6403,-4.6411,-4.6473,-4.6516,-4.643,-4.6434,-4.6635,-4.664,-4.6645,-4.6714,0,0,0,0,0,0,-4.6291,-4.6305,-4.6336,-4.635,-4.6361,-4.6447,-4.6387,-4.6385,-4.6405,-4.6399,-4.6414,-4.6413,-4.6402,-4.6467,-4.6477,-4.652,-4.6437,-4.6631,-4.6638,-4.6643,-4.6708,-4.6721,-4.6732,0,0,0,0,0,-4.6286,-4.6353,-4.6338,-4.6349,-4.6401,-4.645,-4.6456,-4.6442,-4.6409,-4.644,-4.6442,-4.6413,-4.6511,-4.6473,-4.6484,-4.653,-4.6628,-4.6636,-4.6643,-4.6702,-4.6718,-4.6731,0,0,0,0,0,0,-4.6342,-4.6354,-4.6338,-4.6411,-4.643,-4.6441,-4.648,-4.6459,-4.6487,-4.648,-4.6461,-4.6465,-4.6531,-4.6537,-4.6495,-4.6613,-4.6564,-4.6574,-4.6606,-4.662,-4.6632,-4.6628,-4.644,0,0,0,0,0,-4.6364,-4.6403,-4.6411,-4.6475,-4.6486,-4.6482,-4.6503,-4.6491,-4.6509,-4.6517,-4.6522,-4.6541,-4.6576,-4.6599,-4.6631,-4.671,-4.6712,-4.6747,-4.6759,-4.6769,-4.6776,-4.6819,-4.6834,-4.667,-4.667,-4.667,0,0,-4.6407,-4.6419,-4.6444,-4.6487,-4.65,-4.6541,-4.6489,-4.6534,-4.6564,-4.6523,-4.6581,-4.6587,-4.6607,-4.6678,-4.6709,-4.6684,-4.6823,-4.6778,-4.6785,-4.6788,-4.6828,-4.6843,-4.6857,-4.6675,-4.6674,-4.6673,0,0,-4.6506,-4.652,-4.6574,-4.659,-4.6612,-4.6609,-4.6623,-4.6638,-4.664,-4.67,-4.667,-4.6706,-4.6767,-4.6782,-4.6797,-4.6908,-4.6882,-4.6919,-4.6979,-4.7021,-4.7034,-4.7045,-4.7084,-4.7098,-4.6927,-4.6927,-4.6927,0,-4.6557,-4.6618,-4.6605,-4.6653,-4.6672,-4.6641,-4.6696,-4.6711,-4.6742,-4.6756,-4.6729,-4.6806,-4.6817,-4.6891,-4.6918,-4.6933,-4.6947,-4.6915,-4.7034,-4.7045,-4.7055,-4.7091,-4.7106,-4.6931,-4.6931,-4.6931,-4.693,0,-4.6678,-4.6722,-4.6763,-4.6796,-4.6821,-4.6872,-4.6867,-4.6894,-4.6881,-4.6882,-4.6943,-4.6956,-4.6991,-4.7008,-4.6995,-4.7081,-4.7065,-4.7037,-4.6987,-4.7075,-4.7109,-4.7123,-4.6938,-4.6936,-4.6935,-4.6934,0,0,-4.6809,-4.6838,-4.6853,-4.6868,-4.6892,-4.6924,-4.6976,-4.7011,-4.7034,-4.7058,-4.7099,-4.7153,-4.7128,-4.7146,-4.7135,-4.7172,-4.7258,-4.7139,-4.7139,-4.7159,-4.7353,-4.7373,-4.7389,-4.7243,-4.7246,-4.7248,-4.7351,0,-4.6908,-4.6996,-4.6988,-4.7072,-4.7111,-4.7084,-4.7128,-4.7148,-4.7151,-4.7185,-4.7188,-4.7226,-4.719,-4.7201,-4.7237,-4.724,-4.7296,-4.7233,-4.728,-4.7282,-4.7273,-4.7407,-4.7427,-4.7524,-4.7364,-4.7366,-4.7368,0,-4.7033,-4.7063,-4.7152,-4.7171,-4.7188,-4.7228,-4.7261,-4.7294,-4.7316,-4.7316,-4.7338,-4.7322,-4.7373,-4.7326,-4.7396,-4.7353,-4.7373,-4.7378,-4.7381,-4.7382,-4.7328,-4.741,-4.7554,-4.7568,-4.7389,-4.7387,-4.7386,0,-4.7118,-4.7181,-4.7242,-4.7256,-4.7281,-4.731,-4.7322,-4.7341,-4.7364,-4.7393,-4.7408,-4.7442,-4.7461,-4.7488,-4.7482,-4.7448,-4.7554,-4.7505,-4.7554,-4.7554,-4.7574,-4.7572,-4.7721,-4.7591,-4.7591,-4.7591,-4.759,0,-4.7228,-4.7282,-4.7281,-4.7318,-4.7379,-4.7371,-4.7431,-4.7439,-4.7457,-4.7496,-4.7475,-4.7511,-4.7502,-4.7538,-4.7534,-4.7592,-4.7601,-4.7602,-4.7599,-4.7602,-4.7602,-4.7612,-4.7604,-4.7595,-4.7594,-4.7593,-4.7592,0,-4.7331,-4.7333,-4.7397,-4.7417,-4.7424,-4.7468,-4.7484,-4.7519,-4.7523,-4.7571,-4.7582,-4.7587,-4.7628,-4.7626,-4.7673,-4.767,-4.7742,-4.7733,-4.7735,-4.7732,-4.778,-4.7775,-4.7939,-4.7959,-4.7818,-4.782,-4.7821,0,-4.7399,-4.744,-4.7466,-4.7491,-4.7505,-4.7545,-4.7569,-4.7563,-4.7589,-4.762,-4.7651,-4.7692,-4.7723,-4.7791,-4.7798,-4.7834,-4.7824,-4.788,-4.7829,-4.7831,-4.7823,-4.782,-4.7824,-4.7888,-4.789,-4.7891,-4.7892,0,-4.7519,-4.7519,-4.7554,-4.7592,-4.7621,-4.765,-4.7676,-4.7697,-4.7695,-4.7725,-4.7768,-4.7793,-4.7842,-4.7882,-4.7918,-4.7929,-4.791,-4.7909,-4.7922,-4.7923,-4.7922,-4.7922,-4.7759,-4.7904,-4.7903,-4.7902,-4.7901,-4.7901,-4.7605,-4.7641,-4.7666,-4.7707,-4.7727,-4.7752,-4.7787,-4.7796,-4.7832,-4.7873,-4.7868,-4.7916,-4.794,-4.7985,-4.8001,-4.8038,-4.8018,-4.8037,-4.8042,-4.8046,-4.8051,-4.7919,-4.8045,-4.8045,-4.8044,-4.8044,-4.8044,0,-4.7723,-4.7738,-4.7776,-4.7815,-4.7848,-4.783,-4.7859,-4.7887,-4.793,-4.7955,-4.7987,-4.8038,-4.8078,-4.809,-4.8128,-4.8156,-4.8149,-4.8166,-4.8162,-4.8165,-4.8067,-4.8051,-4.8172,-4.8172,-4.8172,-4.8172,-4.8172,-4.8172,-4.7787,-4.7848,-4.7851,-4.7922,-4.7937,-4.7985,-4.8003,-4.8027,-4.8046,-4.8104,-4.8138,-4.8147,-4.8166,-4.8206,-4.8242,-4.8245,-4.8259,-4.828,-4.8279,-4.8185,-4.8172,-4.816,-4.8145,-4.8284,-4.8284,-4.8374,-4.8375,-4.8375]},{"header":{"parameterUnit":"m.s-1","parameterCategory":1,"la1":30.2991,"la2":30.254,"lo1":-89.0895,"lo2":-89.0444,"dy":0.0017,"dx":0.0017,"nx":28,"ny":28,"refTime":"2026-03-02T09:00:00:Z","depth":0,"parameterNumber":3,"parameterNumberName":"V-component_of_WINDS"},"data":[0,0,0,0,0,0,0,0,0,0,0,0,0,0,0,0,0,0,0,0,0,0,0,0,0,0,0,0,0,0,0,0,0,0,0,0,0,0,0,0,0,0,0,0,0,0,0,0,0,0,0,0,0,0,0,0,0,0,2.2491,2.2491,0,2.2504,2.2504,2.2504,2.2514,2.2514,2.2514,2.2514,2.2522,2.2522,2.2522,0,0,0,0,0,0,0,0,0,0,0,0,0,2.2474,2.2474,2.2491,2.2491,2.2491,2.2504,2.2504,2.2504,2.2514,2.2514,2.2514,2.2514,2.2522,2.2522,2.2522,0,0,0,0,0,0,0,0,0,0,0,0,0,2.2483,2.2474,2.2491,2.2498,2.2499,2.2504,2.2504,2.2504,2.2514,2.2514,2.2514,2.2515,2.2521,2.2522,2.2522,2.2519,0,0,2.2522,2.2522,0,0,0,0,0,0,0,0,2.2483,2.2484,2.2497,2.2498,2.2499,2.2508,2.25,2.2509,2.2514,2.2508,2.2514,2.2515,2.2516,2.2517,2.2519,2.2519,2.2519,2.2522,2.2522,2.2522,2.2522,0,0,0,0,0,0,0,2.2482,2.2483,2.2496,2.2497,2.2498,2.25,2.2501,2.2502,2.2511,2.2509,2.2509,2.2511,2.2517,2.2519,2.2519,2.2519,2.2522,2.2522,2.2522,2.2522,2.2522,2.2522,0,0,0,0,0,0,2.2481,2.2483,2.2495,2.2496,2.2491,2.25,2.2502,2.2504,2.2511,2.2512,2.2511,2.2511,2.2518,2.2519,2.2519,2.2519,2.2522,2.2522,2.2522,2.2522,2.2522,2.2522,0,0,0,0,0,0,2.248,2.2482,2.2495,2.249,2.2492,2.25,2.2503,2.2504,2.2506,2.2513,2.2514,2.2511,2.2518,2.2519,2.252,2.2519,2.2522,2.2522,2.2522,2.2522,2.2522,2.2516,0,0,0,0,0,0,2.248,2.2482,2.2481,2.249,2.2492,2.2496,2.2503,2.2505,2.2507,2.2508,2.2513,2.2514,2.2519,2.252,2.252,2.2519,2.2523,2.2522,2.2522,2.2522,2.2516,2.2515,2.2515,0,0,0,0,0,2.2479,2.2476,2.2481,2.2482,2.2491,2.2496,2.2497,2.2504,2.2507,2.2506,2.2511,2.2514,2.2519,2.252,2.252,2.2519,2.2522,2.2522,2.2522,2.2516,2.2516,2.2515,0,0,0,0,0,0,2.2464,2.2478,2.2482,2.2483,2.2489,2.2498,2.2497,2.2502,2.2506,2.2506,2.2513,2.2514,2.2515,2.2517,2.2517,2.2519,2.2521,2.2521,2.2517,2.2516,2.2516,2.2515,2.2523,0,0,0,0,0,2.2461,2.2465,2.2476,2.2476,2.2479,2.2488,2.249,2.2495,2.25,2.2502,2.2507,2.2511,2.2514,2.2515,2.2518,2.2517,2.2519,2.2517,2.2516,2.2516,2.2515,2.2518,2.2518,2.2521,2.2521,2.2521,0,0,2.2454,2.2462,2.2464,2.2473,2.2478,2.2482,2.2489,2.2492,2.2495,2.2502,2.2504,2.2508,2.2513,2.2514,2.2515,2.2516,2.2515,2.2515,2.2515,2.2515,2.2518,2.2517,2.2517,2.2521,2.2521,2.2521,0,0,2.2444,2.245,2.2452,2.2458,2.2467,2.2474,2.2475,2.2484,2.2488,2.2491,2.2498,2.2501,2.2505,2.2509,2.2512,2.2509,2.2512,2.2509,2.2506,2.2508,2.2508,2.2508,2.2508,2.2508,2.2509,2.2509,2.2509,0,2.2434,2.2441,2.2452,2.2456,2.246,2.247,2.2473,2.2477,2.2486,2.2488,2.2491,2.2499,2.2502,2.2506,2.2506,2.2507,2.2509,2.2508,2.2508,2.2507,2.2507,2.2508,2.2508,2.2508,2.2509,2.2509,2.2509,0,2.243,2.2435,2.2435,2.2447,2.2451,2.2454,2.2465,2.2468,2.2474,2.248,2.2485,2.249,2.2496,2.2497,2.2501,2.2503,2.2504,2.2507,2.2509,2.2507,2.2507,2.2508,2.2508,2.2508,2.2508,2.2508,0,0,2.2407,2.2428,2.2428,2.2435,2.2448,2.2452,2.2456,2.2464,2.2468,2.2474,2.2478,2.2484,2.2488,2.2491,2.2496,2.2499,2.2499,2.2502,2.2502,2.2502,2.2503,2.2501,2.2501,2.2502,2.2502,2.2502,2.2503,0,2.24,2.241,2.2421,2.2427,2.2433,2.2445,2.2449,2.2457,2.2464,2.247,2.2477,2.2482,2.2486,2.2488,2.2491,2.2498,2.2499,2.2498,2.2506,2.2506,2.2505,2.2501,2.2498,2.2499,2.2503,2.2503,2.2503,0,2.2392,2.2402,2.2409,2.2425,2.2428,2.2431,2.2442,2.2447,2.2457,2.2463,2.2469,2.2476,2.2481,2.2484,2.2493,2.2492,2.2496,2.25,2.25,2.2501,2.2504,2.2503,2.2499,2.25,2.2503,2.2503,2.2503,0,2.2377,2.2392,2.2399,2.2404,2.2423,2.2425,2.2433,2.2444,2.2449,2.2458,2.2462,2.247,2.2475,2.2481,2.249,2.2492,2.2499,2.2502,2.2503,2.2503,2.2503,2.2503,2.2501,2.2505,2.2505,2.2505,2.2505,0,2.2368,2.2372,2.2393,2.2398,2.2404,2.2417,2.2422,2.243,2.2441,2.2447,2.2457,2.2462,2.2474,2.2481,2.2488,2.2495,2.2497,2.2501,2.2503,2.2501,2.25,2.2503,2.2504,2.2505,2.2505,2.2505,2.2505,0,2.2352,2.2366,2.2375,2.2394,2.2398,2.2402,2.2417,2.2422,2.2432,2.244,2.2442,2.2456,2.2465,2.2476,2.2487,2.2492,2.2499,2.2501,2.2497,2.2498,2.2499,2.25,2.2499,2.2501,2.2503,2.2503,2.2503,0,2.2345,2.2349,2.237,2.2376,2.2384,2.2394,2.2401,2.2415,2.2422,2.2437,2.244,2.2451,2.246,2.2474,2.2485,2.2494,2.2497,2.2497,2.2499,2.2497,2.2499,2.2499,2.2501,2.2496,2.2496,2.2496,2.2496,0,2.2332,2.2341,2.2351,2.2366,2.2375,2.2386,2.2397,2.2401,2.2418,2.2425,2.2437,2.2444,2.2459,2.2469,2.2482,2.2488,2.2495,2.2496,2.2497,2.2494,2.2492,2.2495,2.2496,2.2495,2.2495,2.2495,2.2495,2.2495,2.2321,2.2327,2.2344,2.2356,2.2368,2.2379,2.2386,2.2398,2.2408,2.2423,2.2431,2.2442,2.2456,2.2473,2.248,2.249,2.2491,2.2492,2.2493,2.2493,2.2493,2.2491,2.2491,2.2491,2.2491,2.2491,2.2491,0,2.2311,2.2323,2.2335,2.2353,2.2363,2.2372,2.2386,2.2394,2.2405,2.2418,2.2428,2.2443,2.2454,2.2468,2.248,2.2485,2.2489,2.2488,2.2488,2.249,2.249,2.2489,2.2485,2.2485,2.2485,2.2485,2.2485,2.2485,2.2306,2.2318,2.2328,2.2346,2.2358,2.2371,2.2379,2.239,2.2401,2.2418,2.2429,2.2439,2.2452,2.2467,2.2478,2.2482,2.2486,2.2485,2.249,2.2489,2.249,2.249,2.2489,2.2486,2.2486,2.2489,2.2489,2.2489]}]]